Date String (YYYY-MM-DD hh:mm:ss) UTC,Instrument flags,absolute air pressure of the measurement (hPa),sample flow rate (lpm),inlet stack bypass flow (lpm),air temperature of the measurement (°C),ambient temperature measured by the external sensor (°C),aerosol sample conditioner tube jacket temperature (°C),OPC LED temperature (°C),internal box temperature (°C),relative humidity of the measurement (%),span deviation,mass concentration of particles derived from Lorenz-Mie calculation of OPC scattering (μg/m³),mass concentration of particles derived from Lorenz-Mie calculation of OPC scattering (μg/m³),mass concentration of particles derived from Lorenz-Mie calculation of OPC scattering (μg/m³)
DateTimeUTC,F1_M11,P_M11,Q1_M11,Q2_M11,T1_M11,T2_M11,T3_M11,T4_M11,T5_M11,U1_M11,ZSPAN_M11,X0_M11,X2_M11,X1_M11
2023-10-31 12:00:00,SystemResetWarning,0837.8,5.01,000.00,021.2,020.8,000.0,029.5,022.8,11.0,0003.0,0007.82,0004.18,0003.93
2023-10-31 12:01:00,SystemResetWarning,0837.8,5.00,000.00,021.2,020.6,000.0,029.5,022.7,11.0,0003.5,0008.29,0004.25,0003.97
2023-10-31 12:02:00,SystemResetWarning,0837.8,4.99,000.00,021.2,020.4,000.0,029.5,022.6,11.0,0003.9,0008.70,0004.30,0004.03
2023-10-31 12:03:00,SystemResetWarning,0837.7,5.00,000.00,021.2,020.3,000.0,029.5,022.6,10.9,0004.0,0007.95,0004.33,0004.06
2023-10-31 12:04:00,SystemResetWarning,0837.7,5.00,000.00,021.1,020.2,000.0,029.5,022.5,10.9,0004.7,0007.98,0004.34,0004.08
2023-10-31 12:05:00,SystemResetWarning,0837.7,5.01,000.00,021.1,020.2,000.0,029.5,022.5,10.9,0004.8,0008.44,0004.38,0004.11
2023-10-31 12:06:00,SystemResetWarning,0837.7,5.01,000.00,021.1,020.1,000.0,029.5,022.5,10.9,0004.9,0009.00,0004.42,0004.14
2023-10-31 12:07:00,SystemResetWarning,0837.7,5.00,000.00,021.1,020.1,000.0,029.5,022.4,10.9,0001.1,0009.11,0004.46,0004.18
2023-10-31 12:08:00,SystemResetWarning,0837.7,5.00,000.00,021.0,020.0,000.0,029.5,022.4,10.9,0000.0,0009.48,0004.50,0004.20
2023-10-31 12:09:00,SystemResetWarning,0837.8,4.99,000.00,021.0,019.9,000.0,029.4,022.3,10.9,0000.0,0010.30,0004.54,0004.21
2023-10-31 12:10:00,SystemResetWarning,0837.7,5.00,000.00,021.0,019.8,000.0,029.4,022.2,10.9,0000.0,0010.59,0004.56,0004.22
2023-10-31 12:11:00,SystemResetWarning,0837.7,5.01,000.00,020.9,019.7,000.0,029.4,022.2,10.9,0002.1,0010.90,0004.57,0004.24
2023-10-31 12:12:00,SystemResetWarning,0837.7,5.01,000.00,020.9,019.7,000.0,029.4,022.2,10.9,0000.0,0010.34,0004.56,0004.25
2023-10-31 12:13:00,SystemResetWarning,0837.7,5.00,000.00,020.9,019.7,000.0,029.4,022.1,10.9,0000.0,0010.03,0004.56,0004.26
2023-10-31 12:14:00,SystemResetWarning,0837.7,5.00,000.00,020.9,019.8,000.0,029.4,022.4,10.9,0000.0,0009.91,0004.58,0004.27
2023-10-31 12:15:00,SystemResetWarning,0837.7,5.00,000.00,021.0,020.6,000.0,029.4,023.0,10.9,0000.0,0009.95,0004.64,0004.31
2023-10-31 12:16:00,SystemResetWarning,0837.7,5.00,000.00,021.2,021.2,000.0,029.4,023.2,10.8,0000.0,0009.74,0004.67,0004.36
2023-10-31 12:17:00,SystemResetWarning,0837.7,4.99,000.00,021.3,021.2,000.0,029.4,023.0,10.7,0000.0,0009.43,0004.72,0004.38
2023-10-31 12:18:00,SystemResetWarning,0837.7,5.00,000.00,021.3,021.0,000.0,029.4,022.9,10.7,0000.0,0009.65,0004.77,0004.41
2023-10-31 12:19:00,SystemResetWarning,0837.7,5.01,000.00,021.3,020.8,000.0,029.5,022.8,10.7,0001.1,0010.10,0004.79,0004.45
2023-10-31 12:20:00,SystemResetWarning,0837.7,5.01,000.00,021.2,020.6,000.0,029.5,022.7,10.7,0000.2,0009.41,0004.79,0004.47
2023-10-31 12:21:00,SystemResetWarning,0837.7,5.00,000.00,021.2,020.5,000.0,029.5,022.6,10.7,0000.0,0009.60,0004.79,0004.49
2023-10-31 12:22:00,SystemResetWarning,0837.6,5.00,000.00,021.2,020.3,000.0,029.5,022.6,10.7,0000.0,0009.28,0004.80,0004.50
2023-10-31 12:23:00,SystemResetWarning,0837.6,4.99,000.00,021.1,020.2,000.0,029.5,022.5,10.8,0000.0,0009.42,0004.84,0004.53
2023-10-31 12:24:00,SystemResetWarning,0837.7,4.99,000.00,021.1,020.1,000.0,029.5,022.5,10.8,0000.0,0009.58,0004.91,0004.56
2023-10-31 12:25:00,SystemResetWarning,0837.7,5.02,000.00,021.1,020.0,000.0,029.5,022.4,10.8,0000.0,0009.62,0004.95,0004.61
2023-10-31 12:26:00,SystemResetWarning,0837.7,5.00,000.00,021.0,019.9,000.0,029.4,022.4,10.8,0000.0,0009.64,0004.96,0004.63
2023-10-31 12:27:00,SystemResetWarning,0837.7,4.99,000.00,021.0,019.8,000.0,029.4,022.3,10.8,0000.0,0009.66,0004.98,0004.66
2023-10-31 12:28:00,SystemResetWarning,0837.6,4.99,000.00,021.0,019.8,000.0,029.4,022.3,10.8,0000.0,0009.40,0004.96,0004.67
2023-10-31 12:29:00,SystemResetWarning,0837.6,5.00,000.00,020.9,019.7,000.0,029.4,022.2,10.8,0000.0,0009.46,0004.93,0004.65
2023-10-31 12:30:00,SystemResetWarning,0837.6,5.00,000.00,020.9,019.6,000.0,029.4,022.2,10.8,0000.0,0009.27,0004.91,0004.64
2023-10-31 12:31:00,SystemResetWarning,0837.6,5.01,000.00,020.9,019.6,000.0,029.4,022.1,10.8,0000.0,0009.30,0004.90,0004.64
2023-10-31 12:32:00,SystemResetWarning,0837.6,5.00,000.00,020.9,019.6,000.0,029.4,022.1,10.8,0000.0,0008.84,0004.90,0004.64
2023-10-31 12:33:00,SystemResetWarning,0837.6,5.01,000.00,020.9,020.0,000.0,029.4,022.6,10.8,0000.0,0008.83,0004.93,0004.64
2023-10-31 12:34:00,SystemResetWarning,0837.7,5.01,000.00,021.1,020.8,000.0,029.4,023.1,10.7,0000.0,0008.82,0004.94,0004.64
2023-10-31 12:35:00,SystemResetWarning,0837.6,4.99,000.00,021.2,021.2,000.0,029.4,023.1,10.7,0000.0,0009.45,0004.94,0004.64
2023-10-31 12:36:00,SystemResetWarning,0837.6,4.99,000.00,021.3,021.1,000.0,029.4,022.9,10.6,0000.0,0009.64,0004.95,0004.62
2023-10-31 12:37:00,SystemResetWarning,0837.6,5.00,000.00,021.2,020.9,000.0,029.5,022.8,10.6,0000.0,0010.20,0004.97,0004.62
2023-10-31 12:38:00,SystemResetWarning,0837.7,5.00,000.00,021.2,020.7,000.0,029.5,022.7,10.6,0000.0,0010.24,0004.95,0004.61
2023-10-31 12:39:00,SystemResetWarning,0837.6,5.00,000.00,021.2,020.5,000.0,029.5,022.6,10.7,0000.0,0010.21,0004.97,0004.62
2023-10-31 12:40:00,SystemResetWarning,0837.6,5.00,000.00,021.2,020.4,000.0,029.5,022.6,10.7,0000.0,0010.22,0005.00,0004.64
2023-10-31 12:41:00,SystemResetWarning,0837.6,5.00,000.00,021.1,020.2,000.0,029.5,022.5,10.7,0000.0,0009.51,0005.01,0004.65
2023-10-31 12:42:00,SystemResetWarning,0837.6,5.00,000.00,021.1,020.1,000.0,029.5,022.5,10.7,0000.0,0009.45,0005.04,0004.65
2023-10-31 12:43:00,SystemResetWarning,0837.6,5.00,000.00,021.1,020.0,000.0,029.5,022.5,10.7,0000.0,0009.51,0005.05,0004.65
2023-10-31 12:44:00,SystemResetWarning,0837.6,5.00,000.00,021.0,019.9,000.0,029.5,022.4,10.8,0000.0,0009.37,0005.02,0004.64
2023-10-31 12:45:00,SystemResetWarning,0837.5,5.00,000.00,021.0,019.8,000.0,029.4,022.3,10.8,0000.0,0009.30,0005.01,0004.62
2023-10-31 12:46:00,SystemResetWarning,0837.5,5.00,000.00,021.0,019.7,000.0,029.4,022.2,10.9,0000.0,0008.90,0004.99,0004.61
2023-10-31 12:47:00,SystemResetWarning,0837.5,5.00,000.00,020.9,019.7,000.0,029.4,022.2,10.9,0002.2,0008.63,0004.97,0004.61
2023-10-31 12:48:00,SystemResetWarning,0837.5,5.00,000.00,020.9,019.6,000.0,029.4,022.2,10.9,0002.7,0008.35,0004.97,0004.60
2023-10-31 12:49:00,SystemResetWarning,0837.5,5.00,000.00,020.9,019.6,000.0,029.4,022.1,10.9,0002.3,0008.05,0004.98,0004.59
2023-10-31 12:50:00,SystemResetWarning,0837.5,5.00,000.00,020.9,019.9,000.0,029.4,022.5,10.9,0001.6,0008.65,0004.99,0004.58
2023-10-31 12:51:00,SystemResetWarning,0837.6,5.00,000.00,021.1,020.8,000.0,029.4,023.1,10.8,0002.2,0008.80,0004.98,0004.57
2023-10-31 12:52:00,SystemResetWarning,0837.6,5.00,000.00,021.2,021.2,000.0,029.4,023.2,10.7,0003.0,0008.88,0004.99,0004.56
2023-10-31 12:53:00,SystemResetWarning,0837.6,4.98,000.00,021.3,021.1,000.0,029.4,023.0,10.7,0003.1,0009.19,0004.98,0004.55
2023-10-31 12:54:00,SystemResetWarning,0837.5,4.99,000.00,021.3,020.9,000.0,029.5,022.8,10.8,0002.5,0009.31,0004.99,0004.55
2023-10-31 12:55:00,SystemResetWarning,0837.5,5.00,000.00,021.2,020.7,000.0,029.5,022.7,10.9,0002.2,0009.91,0005.02,0004.56
2023-10-31 12:56:00,SystemResetWarning,0837.5,5.01,000.00,021.2,020.5,000.0,029.5,022.7,11.1,0001.9,0009.96,0005.01,0004.56
2023-10-31 12:57:00,SystemResetWarning,0837.5,5.00,000.00,021.2,020.4,000.0,029.5,022.6,11.1,0002.2,0010.05,0005.04,0004.56
2023-10-31 12:58:00,SystemResetWarning,0837.4,5.00,000.00,021.2,020.2,000.0,029.5,022.5,11.2,0002.1,0009.80,0005.01,0004.55
2023-10-31 12:59:00,SystemResetWarning,0837.4,5.00,000.00,021.1,020.1,000.0,029.5,022.5,11.3,0001.1,0009.78,0005.00,0004.55
